THOR ABLESTAR DEB, 1608

Orbit data source: Space-Track

THOR ABLESTAR DEB, 1608 is space debris in LEO originally from a launch on Sun, 13 Dec 1964 UTC launched from the Air Force Western Test Range (AFWTR). Debris objects in space refer to the collection of defunct objects orbiting the Earth. Examples of debris include non-operational satellites, rocket bodies, and fragments generated from explosions, collisions, or faulty payload assembly.

Loading next visibility...
Identifier
1608, 1964-083H
Orbit
LEO
Country
Flag of USUS
Related business
Manufacturer
Unknown
Mission
Spacecraft
Bus & Motor
Unknown
Mass
Unknown
Launch date (UTC)
1964-12-13 (61 years ago)
Launch vehicle
Unknown
Launch site
Air Force Western Test Range (AFWTR)
Object type
Payload
Rocket body
Debris
Shape & HBR
Unknown
Radar Cross Section
Small (<0.1 m²)

Expand to show TLE details & history
Last TLE update: 11 hours ago

TLE from 11 hours ago
0 THOR ABLESTAR DEB
1 01608U 64083H   25260.96072205  .00000838  00000-0  72340-3 0  9990
2 01608  89.7542  73.2965 0016048 222.3491 267.0845 13.85612958 37219
Epoch: 2025-09-17T23:03Z
TLE epoch observation values (Epoch: 2025-09-17T23:03:26.385Z)
Latitude
50.84503°
Longitude
-89.9929°
Altitude
952.903 km
Speed
7.38 km/s
True Right ascension
16h 51m 59s
True Declination
50° 40' 52"
Sunlit
Object was in daylight at epoch
Visualization orbit readout
Latitude
Unknown
Longitude
Unknown
Altitude
Unknown
Speed
Unknown
Apparent Right ascension
Unknown
Apparent Declination
Unknown
Sunlit
N/A
Visualization observer readout
Local Sidereal Time
02:36:37
Azimuth
Unknown
Elevation
Unknown
Doppler factor
Unknown
Orbital elements
Apogee altitude
952.79 km
Perigee altitude
929.298 km
Semi-major axis
7,319.181 km
Eccentricity
0.0016
Inclination
89.7542°
RAAN
73.2965°
Arg. of periapsis
222.3491°
True anomaly
266.90086°
Mean anomaly
267.0845°
Eccentric anomaly
266.99268°
Mean motion
3.46617 °/min
Orbital period
103.86 mins
BSTAR
0.0007234
Loading maneuver chart data...
Computing Atmospheric mass density...

Documentation

Showing up to 5 results
|